TimeCST,TemperatureF,Dew PointF,Humidity,Sea Level PressureIn,VisibilityMPH,Wind Direction,Wind SpeedMPH,Gust SpeedMPH,PrecipitationIn,Events,Conditions,WindDirDegrees,DateUTC
12:53 AM,30.0,19.9,66,30.20,10.0,SSW,8.1,-,N/A,,Clear,200,2012-12-12 06:53:00
1:53 AM,26.1,19.0,75,30.20,10.0,South,8.1,-,N/A,,Clear,180,2012-12-12 07:53:00
2:53 AM,28.0,19.0,69,30.21,10.0,South,8.1,-,N/A,,Clear,190,2012-12-12 08:53:00
3:53 AM,28.0,19.0,69,30.20,10.0,South,9.2,-,N/A,,Clear,190,2012-12-12 09:53:00
4:53 AM,30.0,18.0,61,30.21,10.0,SSW,10.4,-,N/A,,Clear,210,2012-12-12 10:53:00
5:53 AM,30.0,18.0,61,30.23,10.0,SSW,10.4,-,N/A,,Clear,210,2012-12-12 11:53:00
6:53 AM,30.9,18.0,59,30.25,10.0,SSW,10.4,-,N/A,,Clear,210,2012-12-12 12:53:00
7:53 AM,30.9,18.0,59,30.25,10.0,SSW,10.4,-,N/A,,Clear,200,2012-12-12 13:53:00
8:53 AM,36.0,18.0,48,30.27,10.0,SSW,10.4,-,N/A,,Clear,200,2012-12-12 14:53:00
9:53 AM,41.0,18.0,40,30.29,10.0,SSW,13.8,-,N/A,,Clear,210,2012-12-12 15:53:00
10:53 AM,45.0,19.0,36,30.30,10.0,SSW,12.7,-,N/A,,Clear,210,2012-12-12 16:53:00
11:53 AM,46.9,18.0,32,30.27,10.0,SW,16.1,21.9,N/A,,Clear,220,2012-12-12 17:53:00
12:53 PM,48.9,16.0,27,30.25,10.0,SSW,16.1,-,N/A,,Clear,210,2012-12-12 18:53:00
1:53 PM,51.1,17.1,26,30.22,10.0,South,11.5,-,N/A,,Clear,190,2012-12-12 19:53:00
2:53 PM,50.0,15.1,25,30.22,10.0,SSW,10.4,21.9,N/A,,Clear,210,2012-12-12 20:53:00
3:53 PM,48.9,17.1,28,30.22,10.0,South,11.5,-,N/A,,Clear,190,2012-12-12 21:53:00
4:53 PM,43.0,18.0,37,30.21,10.0,South,8.1,-,N/A,,Clear,180,2012-12-12 22:53:00
5:53 PM,37.9,18.0,45,30.21,10.0,South,6.9,-,N/A,,Clear,170,2012-12-12 23:53:00
6:53 PM,35.1,19.0,52,30.21,10.0,SSE,9.2,-,N/A,,Clear,160,2012-12-13 00:53:00
7:53 PM,35.1,18.0,50,30.20,10.0,SSE,9.2,-,N/A,,Clear,160,2012-12-13 01:53:00
8:53 PM,36.0,18.0,48,30.21,10.0,South,8.1,-,N/A,,Clear,170,2012-12-13 02:53:00
9:53 PM,36.0,18.0,48,30.20,10.0,South,11.5,-,N/A,,Clear,170,2012-12-13 03:53:00
10:53 PM,37.0,18.0,46,30.23,10.0,South,11.5,-,N/A,,Clear,180,2012-12-13 04:53:00
11:53 PM,37.9,17.1,43,30.23,10.0,South,10.4,-,N/A,,Clear,180,2012-12-13 05:53:00